Content
SEND FEEDBACK

Daily
Averages
Monthly
Summary
United States of America

GODFREY, GEORGIA


Home > North America > United States > Georgia
Elevation: 57 feet     Latitude: 33 29N     Longitude: 083 27W

WEATHER
 
SELECT A DAY
Number of Records: 218,448;   Date Range: 4/19/05 - 4/15/14
 
SHARE

PRINT THIS DATA

[ ← Previous Day ]
WEATHER ALMANAC - FEBRUARY 13, 2013
[ Next Day → ]
[ °C ]   °F
Weather ElementAverageHighLow
Temperature46.8 °F53.6 °F (4:15 pm)41 °F (11:35 pm)
Dewpoint43.5 °F50 °F (12:15 pm)35.6 °F (10:15 pm)
Humidity88.8 %100 % (12:35 am)67 % (5:15 pm)
Barometer29.79 in29.90 in (11:55 pm)29.73 in (4:55 am)
Wind Speed4.1 mph9.2 mph (11:55 am)
Wind Gust18.4 mph (4:55 pm)
Weather ElementAverage
Visibility7.1 mi
Wind DirectionSSE (153.7 °)

Weather ElementTotal
Precipitation---
Heating Degree Days17.7 (Base 65)
Averaged from 71 records on February 13, 2013
WEATHER CONDITIONS BREAKOUT
WIND DIRECTION BREAKOUT
WEATHER BY HOUR - FEBRUARY 13, 2013
[ °C ]   °F
Local TimeTemperatureDewpointHumidityBarometerVisibilityWind DirectionWind SpeedGust SpeedPrecipitationEventsConditions
12:35 AM44.6 °F44.6 °F100 %29.82 in2.0 miNNE (20°)3.5 mphRain-ThunderstormHeavy Thunderstorms and Rain
12:55 AM44.6 °F44.6 °F100 %29.80 in10.0 miNE (40°)3.5 mphThunderstormOvercast
1:15 AM44.6 °F44.6 °F100 %29.80 in10.0 miENE (60°)4.6 mphThunderstorm
1:35 AM44.6 °F44.6 °F100 %29.81 in7.0 miCalmDrizzle
1:55 AM44.6 °F44.6 °F100 %29.80 in4.0 miCalmHeavy Drizzle
2:15 AM44.6 °F44.6 °F100 %29.81 in5.0 miCalmDrizzle
2:35 AM44.6 °F44.6 °F100 %29.80 in7.0 miCalmOvercast
2:55 AM44.6 °F44.6 °F100 %29.79 in5.0 miCalmThunderstormOvercast
3:15 AM44.6 °F42.8 °F93 %29.77 in5.0 miCalmOvercast
3:35 AM44.6 °F42.8 °F93 %29.77 in7.0 miCalmOvercast
3:55 AM44.6 °F42.8 °F93 %29.76 in7.0 miNE (40°)3.5 mphOvercast
4:15 AM44.6 °F42.8 °F93 %29.75 in7.0 miNE (50°)3.5 mphOvercast
4:35 AM44.6 °F44.6 °F100 %29.75 in7.0 miCalmOvercast
4:55 AM44.6 °F44.6 °F100 %29.73 in7.0 miCalmOvercast
5:15 AM44.6 °F44.6 °F100 %29.75 in5.0 miCalmOvercast
5:35 AM44.6 °F44.6 °F100 %29.76 in2.5 miCalmDrizzle
5:55 AM44.6 °F44.6 °F100 %29.75 in2.0 miCalmDrizzle
6:15 AM44.6 °F44.6 °F100 %29.75 in2.5 miCalmLight Drizzle
6:35 AM44.6 °F44.6 °F100 %29.73 in4.0 miCalmOvercast
6:55 AM44.6 °F44.6 °F100 %29.77 in4.0 miCalmOvercast
7:15 AM44.6 °F44.6 °F100 %29.78 in3.0 miCalmOvercast
7:35 AM44.6 °F44.6 °F100 %29.77 in2.0 miCalmOvercast
7:55 AM44.6 °F44.6 °F100 %29.74 in1.8 miEast (100°)4.6 mphOvercast
8:15 AM44.6 °F44.6 °F100 %29.77 in1.8 miCalmOvercast
8:35 AM44.6 °F44.6 °F100 %29.76 in1.8 miCalmOvercast
8:55 AM44.6 °F44.6 °F100 %29.75 in1.2 miSE (130°)4.6 mphOvercast
9:15 AM46.4 °F44.6 °F93 %29.74 in1.2 miCalmOvercast
9:35 AM46.4 °F44.6 °F93 %29.75 in2.0 miCalmOvercast
9:55 AM46.4 °F44.6 °F93 %29.75 in1.8 miCalmOvercast
10:15 AM46.4 °F46.4 °F100 %29.74 in1.8 miCalmOvercast
10:35 AM46.4 °F46.4 °F100 %29.75 in1.5 miSW (230°)3.5 mphOvercast
10:55 AM46.4 °F46.4 °F100 %29.76 in0.8 miSW (230°)4.6 mphRainRain
11:15 AM46.4 °F46.4 °F100 %29.76 in1.2 miWSW (250°)4.6 mphLight Drizzle
11:35 AM48.2 °F46.4 °F93 %29.78 in4.0 miWSW (240°)5.8 mphOvercast
11:55 AM48.2 °F48.2 °F100 %29.76 in7.0 miSW (220°)9.2 mphOvercast
12:15 PM50.0 °F50.0 °F100 %29.75 in10.0 miWSW (240°)6.9 mphOvercast
12:35 PM50.0 °F50.0 °F100 %29.75 in10.0 miWSW (240°)6.9 mphOvercast
12:55 PM50.0 °F48.2 °F94 %29.74 in10.0 miSW (230°)5.8 mphLight Drizzle
1:15 PM50.0 °F48.2 °F94 %29.76 in10.0 miWSW (250°)6.9 mphDrizzle
1:35 PM50.0 °F48.2 °F94 %29.73 in10.0 miSW (220°)6.9 mphOvercast
1:55 PM51.8 °F48.2 °F88 %29.74 in10.0 miSW (230°)4.6 mphMostly Cloudy
2:15 PM51.8 °F46.4 °F82 %29.74 in10.0 miWSW (240°)5.8 mphScattered Clouds
2:35 PM51.8 °F46.4 °F82 %29.74 in10.0 miWSW (240°)8.1 mphMostly Cloudy
2:55 PM51.8 °F46.4 °F82 %29.73 in10.0 miWSW (240°)8.1 mph16.1 mphScattered Clouds
3:15 PM51.8 °F46.4 °F82 %29.73 in10.0 miSW (230°)5.8 mphScattered Clouds
3:35 PM51.8 °F46.4 °F82 %29.73 in10.0 miSW (230°)5.8 mphMostly Cloudy
3:55 PM51.8 °F46.4 °F82 %29.74 in10.0 miWSW (240°)5.8 mphOvercast
4:15 PM53.6 °F46.4 °F77 %29.74 in10.0 miWSW (240°)5.8 mphScattered Clouds
4:35 PM51.8 °F42.8 °F71 %29.75 in10.0 miWest (260°)9.2 mph17.3 mphClear
4:55 PM51.8 °F42.8 °F71 %29.76 in10.0 miWest (260°)6.9 mph18.4 mphClear
5:15 PM51.8 °F41.0 °F67 %29.79 in10.0 miWest (270°)9.2 mph17.3 mphScattered Clouds
5:35 PM51.8 °F41.0 °F67 %29.78 in10.0 miWest (270°)9.2 mphMostly Cloudy
5:55 PM50.0 °F41.0 °F71 %29.80 in10.0 miWest (280°)6.9 mphMostly Cloudy
6:15 PM50.0 °F41.0 °F71 %29.81 in10.0 miWest (270°)8.1 mph18.4 mphOvercast
6:35 PM50.0 °F41.0 °F71 %29.81 in10.0 miWest (280°)9.2 mph17.3 mphOvercast
6:55 PM48.2 °F39.2 °F71 %29.81 in10.0 miWest (270°)4.6 mph16.1 mphOvercast
7:15 PM46.4 °F39.2 °F76 %29.82 in10.0 miWest (270°)5.8 mphScattered Clouds
7:35 PM46.4 °F39.2 °F76 %29.84 in10.0 miWest (270°)6.9 mphClear
7:55 PM46.4 °F39.2 °F76 %29.85 in10.0 miWest (270°)5.8 mphClear
8:15 PM46.4 °F41.0 °F81 %29.85 in10.0 miWest (270°)4.6 mphMostly Cloudy
8:35 PM46.4 °F41.0 °F81 %29.85 in10.0 miWest (260°)5.8 mphOvercast
8:55 PM46.4 °F41.0 °F81 %29.85 in10.0 miWest (260°)5.8 mphOvercast
9:15 PM46.4 °F41.0 °F81 %29.86 in10.0 miWest (260°)4.6 mphScattered Clouds
9:35 PM46.4 °F39.2 °F76 %29.86 in10.0 miWest (270°)5.8 mphClear
9:55 PM44.6 °F37.4 °F76 %29.87 in10.0 miWest (280°)5.8 mphClear
10:15 PM44.6 °F35.6 °F71 %29.87 in10.0 miWNW (290°)9.2 mphClear
10:35 PM44.6 °F35.6 °F71 %29.89 in10.0 miWest (270°)6.9 mphClear
10:55 PM42.8 °F35.6 °F76 %29.89 in10.0 miWest (280°)6.9 mphClear
11:15 PM42.8 °F35.6 °F76 %29.89 in10.0 miWest (280°)3.5 mphClear
11:35 PM41.0 °F35.6 °F81 %29.89 in10.0 miWest (270°)6.9 mphClear
11:55 PM41.0 °F35.6 °F81 %29.90 in10.0 miWest (270°)6.9 mphClear
Hourly data recorded from K3J7, located 19.56 miles away from Godfrey, Georgia







STORIES FROM OUR PARTNERS